Zurück zum Katalog

COSMOS 1911

AktivMilitärPO
NORAD 18790·PAYLOAD·🇷🇺 Russia

Gestartet Jan 15, 1988 von Plesetsk Cosmodrome

Loading…

Nächste Überflüge (nächste 24 Stunden)

TLE

AktuellSource: Space-Track

Epoche: Sep 14, 2026, 05:44 UTC

1 18790U 88002C   26257.23907862  .00000019  00000-0  45342-4 0  9994
2 18790  82.6119 191.7259 0006336 297.5244 239.8542 12.64386242784201

Verfolge COSMOS 1911 in Echtzeit mit AllMySat

Download on the App Store